logo tempoitalia

Diretta Meteo Weatherford, Stati Uniti (USA)lunedì 31 agosto ore 01:30

Mappa
Sereno 28 °C Sereno 24 Ore: T.min 25 T.max 39
Ponente Sud Km/h 18.5 Punto di rugiada: 13 °C Umidità: 39% Visibilità: 10 Km
Il sole sorge alle: 07:06 Il sole tramonta alle: 20:03
31 Agosto 2026 01:30 tempo osservato: Sereno Sereno 28 39 1014 vento: Nord S 18.5
31 Agosto 2026 01:10 tempo osservato: Sereno Sereno 28 39 1014 vento: Nord S 20.3
31 Agosto 2026 00:50 tempo osservato: Sereno Sereno 29 37 1014 vento: Nord S 22.2
31 Agosto 2026 00:30 tempo osservato: Sereno Sereno 29 37 1014 vento: Nord S 24
31 Agosto 2026 00:10 tempo osservato: Sereno Sereno 29 39 1014 vento: Nord S 22.2
30 Agosto 2026 23:50 tempo osservato: Sereno Sereno 30 37 1014 vento: Nord S 24
30 Agosto 2026 23:30 tempo osservato: Sereno Sereno 30 37 1014 vento: Nord S 18.5
30 Agosto 2026 23:10 tempo osservato: Sereno Sereno 31 35 1014 vento: Nord S 20.3
30 Agosto 2026 22:50 tempo osservato: Sereno Sereno 31 35 1014 vento: Nord S 20.3
30 Agosto 2026 22:30 tempo osservato: Sereno Sereno 31 33 1014 vento: Nord S 18.5
30 Agosto 2026 22:10 tempo osservato: Sereno Sereno 31 33 1014 vento: Nord S/SE 16.7
30 Agosto 2026 21:50 tempo osservato: Sereno Sereno 31 33 1013 vento: Nord S/SE 18.5
30 Agosto 2026 21:30 tempo osservato: Sereno Sereno 31 33 1013 vento: Nord S/SE 16.7
30 Agosto 2026 21:10 tempo osservato: Sereno Sereno 32 33 1012 vento: Nord S/SE 16.7
30 Agosto 2026 20:50 tempo osservato: Sereno Sereno 33 31 1012 vento: Nord S/SE 16.7
30 Agosto 2026 20:30 tempo osservato: Sereno Sereno 33 31 1012 vento: Nord S/SE 14.8
30 Agosto 2026 20:10 tempo osservato: Sereno Sereno 34 30 1012 vento: Nord S/SE 16.7
30 Agosto 2026 19:50 tempo osservato: Sereno Sereno 35 28 1012 vento: Nord S/SE 22.2
30 Agosto 2026 19:30 tempo osservato: Sereno Sereno 36 26 1012 vento: Nord S/SE 20.3
30 Agosto 2026 19:10 tempo osservato: Sereno Sereno 37 25 1012 vento: Nord S 20.3
30 Agosto 2026 18:50 tempo osservato: Sereno Sereno 38 24 1012 vento: Nord S 24
30 Agosto 2026 18:30 tempo osservato: Sereno Sereno 38 24 1012 vento: Nord S 22.2
30 Agosto 2026 18:10 tempo osservato: Sereno Sereno 38 24 1012 vento: Nord S 22.2
30 Agosto 2026 17:50 tempo osservato: Sereno Sereno 39 22 1011 vento: Nord S 20.3
30 Agosto 2026 17:30 tempo osservato: Sereno Sereno 38 24 1011 vento: Nord S 25.9
30 Agosto 2026 17:10 tempo osservato: Sereno Sereno 39 22 1011 vento: Nord S 22.2
30 Agosto 2026 16:50 tempo osservato: Sereno Sereno 39 22 1012 vento: Nord S 31.5
30 Agosto 2026 16:30 tempo osservato: Sereno Sereno 39 24 1012 vento: Nord S 27.8
30 Agosto 2026 16:10 tempo osservato: Sereno Sereno 38 25 1012 vento: Nord S/SO 24
30 Agosto 2026 15:50 tempo osservato: Sereno Sereno 39 24 1012 vento: Nord S/SO 18.5
30 Agosto 2026 15:30 tempo osservato: Sereno Sereno 39 26 1012 vento: Nord S 24
30 Agosto 2026 15:10 tempo osservato: Nuvoloso Nuvoloso 38 25 1013 vento: Nord S/SO 22.2
30 Agosto 2026 14:50 tempo osservato: Sereno Sereno 38 27 1013 vento: Nord S 27.8
30 Agosto 2026 14:30 tempo osservato: Sereno Sereno 38 27 1014 vento: Nord S/SO 22.2
30 Agosto 2026 14:10 tempo osservato: Sereno Sereno 38 27 1014 vento: Nord S/SO 25.9
30 Agosto 2026 13:50 tempo osservato: Sereno Sereno 38 29 1014 vento: Nord S 27.8
30 Agosto 2026 13:30 tempo osservato: Sereno Sereno 37 30 1014 vento: Nord SO 27.8
30 Agosto 2026 13:10 tempo osservato: Sereno Sereno 37 30 1014 vento: Nord SO 22.2
30 Agosto 2026 12:50 tempo osservato: Sereno Sereno 37 30 1015 vento: Nord S 25.9
30 Agosto 2026 12:30 tempo osservato: Sereno Sereno 36 32 1015 vento: Nord SO 25.9
30 Agosto 2026 12:10 tempo osservato: Sereno Sereno 36 32 1015 vento: Nord SO 31.5
30 Agosto 2026 11:50 tempo osservato: Sereno Sereno 35 34 1015 vento: Nord S/SO 22.2
30 Agosto 2026 11:30 tempo osservato: Sereno Sereno 35 34 1015 vento: Nord SO 31.5
30 Agosto 2026 11:10 tempo osservato: Sereno Sereno 34 36 1015 vento: Nord SO 24
30 Agosto 2026 10:50 tempo osservato: Sereno Sereno 34 36 1015 vento: Nord S/SO 27.8
30 Agosto 2026 10:30 tempo osservato: Sereno Sereno 33 38 1015 vento: Nord S/SO 29.6
30 Agosto 2026 10:10 tempo osservato: Sereno Sereno 33 38 1016 vento: Nord S/SO 25.9
30 Agosto 2026 09:50 tempo osservato: Sereno Sereno 32 40 1015 vento: Nord S/SO 24
30 Agosto 2026 09:30 tempo osservato: Sereno Sereno 31 43 1015 vento: Nord S/SO 20.3
30 Agosto 2026 09:10 tempo osservato: Sereno Sereno 29 45 1015 vento: Nord S 24
30 Agosto 2026 08:50 tempo osservato: Sereno Sereno 29 45 1016 vento: Nord S 22.2
30 Agosto 2026 08:30 tempo osservato: Sereno Sereno 27 50 1016 vento: Nord S/SE 14.8
30 Agosto 2026 08:10 tempo osservato: Sereno Sereno 26 54 1015 vento: Nord S 14.8
30 Agosto 2026 07:50 tempo osservato: Sereno Sereno 25 57 1015 vento: Nord S/SE 14.8
30 Agosto 2026 07:30 tempo osservato: Sereno Sereno 25 57 1015 vento: Nord S/SE 13
30 Agosto 2026 07:10 tempo osservato: Sereno Sereno 27 50 1015 vento: Nord S 13
30 Agosto 2026 06:50 tempo osservato: Sereno Sereno 27 50 1015 vento: Nord S 18.5
30 Agosto 2026 06:30 tempo osservato: Sereno Sereno 27 47 1015 vento: Nord S 14.8
30 Agosto 2026 06:10 tempo osservato: Sereno Sereno 27 47 1015 vento: Nord S 14.8
30 Agosto 2026 05:50 tempo osservato: Sereno Sereno 27 47 1015 vento: Nord S 18.5
30 Agosto 2026 05:30 tempo osservato: Sereno Sereno 27 47 1015 vento: Nord S 18.5
30 Agosto 2026 05:10 tempo osservato: Sereno Sereno 27 47 1015 vento: Nord S 18.5
30 Agosto 2026 04:50 tempo osservato: Sereno Sereno 27 47 1014 vento: Nord S 16.7
30 Agosto 2026 04:30 tempo osservato: Sereno Sereno 27 47 1014 vento: Nord S/SO 16.7
30 Agosto 2026 04:10 tempo osservato: Sereno Sereno 28 45 1014 vento: Nord S 18.5
30 Agosto 2026 03:50 tempo osservato: Sereno Sereno 27 44 1014 vento: Nord S 13
30 Agosto 2026 03:30 tempo osservato: Sereno Sereno 28 42 1014 vento: Nord S 13
30 Agosto 2026 03:10 tempo osservato: Sereno Sereno 28 42 1014 vento: Nord S 16.7
30 Agosto 2026 02:50 tempo osservato: Sereno Sereno 28 42 1014 vento: Nord S 16.7
30 Agosto 2026 02:30 tempo osservato: Sereno Sereno 28 42 1014 vento: Nord S 18.5
30 Agosto 2026 02:10 tempo osservato: Sereno Sereno 28 42 1014 vento: Nord S 20.3
30 Agosto 2026 01:50 tempo osservato: Sereno Sereno 28 42 1015 vento: Nord S 18.5